Taunton, MA

6:07 AM EST on January 20, 2018 (GMT -0500)
Taunton Municipal

Weather History for KTAN - February, 2014

Change the Weather History Date:

Thursday, February 20, 2014

  Actual Average Record
Temperature  
Mean Temperature 40 °F -  
Max Temperature 48 °F 42 °F 58 °F (1954)
Min Temperature 33 °F 22 °F -2 °F (2015)
Degree Days  
Heating Degree Days 24    
Moisture  
Dew Point 26 °F    
Average Humidity 63    
Maximum Humidity 89    
Minimum Humidity 31    
Precipitation  
Precipitation 0.14 in - - ()
Sea Level Pressure  
Sea Level Pressure 30.12 in    
Wind  
Wind Speed 5 mph (SW)    
Max Wind Speed 10 mph    
Max Gust Speed -    
Visibility 9 miles    
Events Rain    
Averages and records for this station are not official NWS values.
T = Trace of Precipitation, MM = Missing Value Source: NWS Daily Summary

Daily Weather History Graph

Daily Weather History Graph

Search for Another Location

Airport or City:

Trip Planner

Search our weather history database for the weather conditions in past years. The results will help you decide how hot, cold, wet, or windy it might be!

Date:

Astronomy

Feb. 20, 2014 Rise Set
Actual Time 6:32 AM EST 5:23 PM EST
Civil Twilight 6:04 AM EST 5:51 PM EST
Nautical Twilight 5:32 AM EST 6:24 PM EST
Astronomical Twilight 4:59 AM EST 6:56 PM EST
Moon 11:20 PM EST 9:08 AM EST
Length of Visible Light 11h 47m
Length of Day
10h 50m
Waning Gibbous, 71% of the Moon is Illuminated
Feb 20
Waning Gibbous
Feb 22
Last Quarter
Mar 1
New
Mar 8
First Quarter
Mar 16
Full

Hourly Weather History & Observations

Time (EST) Temp. Windchill Dew Point Humidity Pressure Visibility Wind Dir Wind Speed Gust Speed Precip Events Conditions
12:06 AM 34.0 °F 29.8 °F 30.9 °F 89% 29.84 in 6.0 mi West 4.6 mph - N/A   Mostly Cloudy
12:52 AM 33.1 °F 27.7 °F 30.0 °F 89% 29.87 in 5.0 mi WSW 5.8 mph - N/A   Clear
1:52 AM 37.0 °F 32.4 °F 32.0 °F 82% 29.93 in 10.0 mi West 5.8 mph - N/A   Clear
2:52 AM 36.0 °F 32.1 °F 30.9 °F 82% 29.96 in 10.0 mi West 4.6 mph - N/A   Clear
3:52 AM 35.1 °F 31.0 °F 30.9 °F 85% 30.00 in 10.0 mi WSW 4.6 mph - N/A   Clear
4:52 AM 36.0 °F 30.3 °F 30.9 °F 82% 30.06 in 10.0 mi WSW 6.9 mph - N/A   Clear
5:52 AM 35.1 °F 31.0 °F 30.0 °F 82% 30.08 in 10.0 mi SW 4.6 mph - N/A   Clear
6:52 AM 33.1 °F 27.7 °F 28.9 °F 85% 30.12 in 7.0 mi West 5.8 mph - N/A   Clear
7:52 AM 36.0 °F 33.3 °F 28.9 °F 76% 30.17 in 9.0 mi West 3.5 mph - N/A   Clear
8:52 AM 39.9 °F 35.1 °F 28.0 °F 63% 30.19 in 10.0 mi West 6.9 mph - N/A   Clear
9:52 AM 44.1 °F 40.8 °F 25.0 °F 47% 30.19 in 10.0 mi Variable 5.8 mph - N/A   Clear
10:52 AM 45.0 °F 42.6 °F 21.9 °F 40% 30.18 in 10.0 mi WSW 4.6 mph - N/A   Clear
11:52 AM 48.0 °F - 21.9 °F 36% 30.19 in 10.0 mi Variable 6.9 mph - N/A   Clear
12:52 PM 48.0 °F - 24.1 °F 39% 30.18 in 10.0 mi SSW 9.2 mph - N/A   Clear
1:52 PM 48.9 °F - 19.9 °F 32% 30.18 in 10.0 mi Variable 5.8 mph - N/A   Clear
2:10 PM 48.9 °F - 21.0 °F 33% 30.18 in 1.8 mi South 8.1 mph - N/A   Haze
2:23 PM 48.9 °F - 19.0 °F 31% 30.19 in 10.0 mi WSW 10.4 mph - N/A   Clear
2:52 PM - - - N/A% 30.19 in - North - - N/A   Unknown
3:52 PM 48.0 °F - 21.9 °F 36% 30.19 in 10.0 mi SSW 8.1 mph - N/A   Clear
4:52 PM 46.0 °F 43.9 °F 19.0 °F 34% 30.21 in 10.0 mi South 4.6 mph - N/A   Clear
5:52 PM 43.0 °F 41.3 °F 21.0 °F 42% 30.20 in 10.0 mi South 3.5 mph - N/A   Clear
6:52 PM 41.0 °F 38.0 °F 21.9 °F 47% 30.17 in 10.0 mi SSE 4.6 mph - N/A   Mostly Cloudy
7:52 PM 39.9 °F - 23.0 °F 51% 30.20 in 10.0 mi Calm Calm - N/A   Overcast
8:52 PM 36.0 °F 30.3 °F 28.9 °F 76% 30.17 in 10.0 mi ESE 6.9 mph - 0.00 in Rain Light Rain
9:52 PM 35.1 °F - 32.0 °F 89% 30.19 in 5.0 mi Calm Calm - 0.04 in Rain Light Rain
10:52 PM 35.1 °F - 32.0 °F 89% 30.18 in 4.0 mi Calm Calm - 0.05 in Rain Light Rain
11:52 PM 35.1 °F - 32.0 °F 89% 30.16 in 10.0 mi Calm Calm - 0.05 in   Overcast